Weather History for Fayetteville, AR

Change the Weather History Date:

Tuesday, January 29, 2013

  Actual Average Record
Temperature  
Mean Temperature 58 °F 36 °F  
Max Temperature 67 °F 47 °F 74 °F (2011)
Min Temperature 48 °F 25 °F -2 °F (1966)
Degree Days  
Heating Degree Days 7 29  
Month to date heating degree days 756 859  
Since 1 July heating degree days 2274 2542  
Growing Degree Days 7 (Base 50)    
Moisture  
Dew Point 57 °F    
Average Humidity 89    
Maximum Humidity 100    
Minimum Humidity 78    
Precipitation  
Precipitation 2.68 in 0.09 in 2.68 in (2013)
Month to date precipitation 3.03 2.66  
Year to date precipitation 3.03 2.66  
Sea Level Pressure  
Sea Level Pressure 29.59 in    
Wind  
Wind Speed 18 mph (SSW)    
Max Wind Speed 30 mph    
Max Gust Speed 39 mph    
Visibility 6 miles    
Events Fog , Rain , Thunderstorm    
T = Trace of Precipitation, MM = Missing Value Source: NWS Daily Summary

Daily Weather History Graph

Daily Weather History Graph

Search for Another Location

Airport:

Trip Planner

Search our weather history database for the weather conditions in past years. The results will help you decide how hot, cold, wet, or windy it might be!

Date:

Astronomy

Jan. 29, 2013 Rise Set
Actual Time 7:19 AM CST 5:40 PM CST
Civil Twilight 6:52 AM CST 6:07 PM CST
Nautical Twilight 6:21 AM CST 6:38 PM CST
Astronomical Twilight 5:51 AM CST 7:08 PM CST
Moon 8:30 PM CST (1/29) 8:23 AM CST (1/29)
Length of Visible Light 11h 15m
Length of Day
10h 21m
Waning Gibbous, 93% of the Moon is Illuminated
Jan 29
Waning Gibbous
Feb 3
Last Quarter
Feb 10
New
Feb 17
First Quarter
Feb 25
Full

Hourly Weather History & Observations

Time (CST) Temp. Dew Point Humidity Pressure Visibility Wind Dir Wind Speed Gust Speed Precip Events Conditions
12:53 AM 64.9 °F 57.9 °F 78% 29.81 in 10.0 mi South 18.4 mph 26.5 mph N/A   Mostly Cloudy
1:53 AM 64.9 °F 59.0 °F 81% 29.81 in 10.0 mi South 13.8 mph 21.9 mph N/A   Overcast
2:27 AM 64.4 °F 59.0 °F 83% 29.84 in 10.0 mi South 15.0 mph 21.9 mph N/A   Overcast
2:35 AM 64.4 °F 57.2 °F 77% 29.83 in 10.0 mi South 16.1 mph 24.2 mph N/A   Overcast
2:53 AM 64.9 °F 57.9 °F 78% 29.79 in 10.0 mi South 17.3 mph 25.3 mph N/A   Mostly Cloudy
3:53 AM 64.9 °F 59.0 °F 81% 29.78 in 10.0 mi South 18.4 mph 25.3 mph N/A   Overcast
4:45 AM 64.4 °F 59.0 °F 83% 29.79 in 10.0 mi South 17.3 mph 24.2 mph N/A   Overcast
4:53 AM 64.9 °F 59.0 °F 81% 29.76 in 10.0 mi South 17.3 mph 24.2 mph N/A   Overcast
5:50 AM 64.4 °F 59.0 °F 83% 29.78 in 10.0 mi South 16.1 mph 24.2 mph N/A   Overcast
5:53 AM 64.9 °F 59.0 °F 81% 29.75 in 10.0 mi South 19.6 mph 27.6 mph N/A   Overcast
6:53 AM 64.0 °F 59.0 °F 84% 29.73 in 10.0 mi South 12.7 mph 21.9 mph N/A   Mostly Cloudy
7:53 AM 64.0 °F 60.1 °F 87% 29.69 in 10.0 mi South 19.6 mph 28.8 mph 0.00 in   Overcast
8:53 AM 66.0 °F 60.1 °F 81% 29.69 in 10.0 mi South 20.7 mph 29.9 mph N/A   Scattered Clouds
9:01 AM 66.2 °F 60.8 °F 83% 29.71 in 10.0 mi South 17.3 mph 28.8 mph N/A   Mostly Cloudy
9:53 AM 66.9 °F 61.0 °F 81% 29.66 in 10.0 mi South 19.6 mph 32.2 mph 0.00 in Rain Light Rain
10:34 AM 64.4 °F 60.8 °F 88% 29.67 in 5.0 mi South 17.3 mph 23.0 mph 0.11 in Rain , Thunderstorm Thunderstorms and Rain
10:53 AM 64.9 °F 63.0 °F 93% 29.62 in 5.0 mi South 18.4 mph 23.0 mph 0.18 in Rain Light Rain
11:04 AM 64.4 °F 64.4 °F 100% 29.66 in 5.0 mi South 13.8 mph 24.2 mph 0.04 in Rain , Thunderstorm Light Rain
11:19 AM 64.4 °F - N/A% 29.64 in 5.0 mi South 20.7 mph 28.8 mph 0.06 in Rain , Thunderstorm Light Rain
11:40 AM 66.2 °F - N/A% 29.61 in 5.0 mi South 23.0 mph 28.8 mph 0.06 in Rain Light Rain
11:53 AM 66.0 °F - N/A% 29.57 in 5.0 mi South 20.7 mph 32.2 mph 0.06 in Rain , Thunderstorm Light Rain
12:46 PM 64.4 °F 62.6 °F 94% 29.56 in 9.0 mi South 19.6 mph 26.5 mph 0.02 in Rain , Thunderstorm Light Rain
12:53 PM 64.9 °F 63.0 °F 93% 29.53 in 4.0 mi South 19.6 mph 25.3 mph 0.04 in Rain , Thunderstorm Rain
1:03 PM 64.4 °F 62.6 °F 94% 29.54 in 2.5 mi South 17.3 mph 25.3 mph 0.07 in Rain , Thunderstorm Heavy Thunderstorms and Rain
1:13 PM 64.4 °F 62.6 °F 94% 29.54 in 8.0 mi South 16.1 mph 25.3 mph 0.07 in Rain , Thunderstorm Light Thunderstorms and Rain
1:17 PM 64.4 °F 62.6 °F 94% 29.54 in 10.0 mi South 13.8 mph 25.3 mph 0.07 in Rain Light Rain
1:53 PM 64.9 °F 63.0 °F 93% 29.48 in 10.0 mi South 13.8 mph 25.3 mph 0.07 in Rain Light Rain
2:00 PM 66.2 °F 62.6 °F 88% 29.51 in 10.0 mi South 12.7 mph 25.3 mph 0.00 in   Overcast
2:40 PM 64.4 °F 62.6 °F 94% 29.48 in 10.0 mi South 15.0 mph 25.3 mph 0.02 in Rain , Thunderstorm Light Rain
2:53 PM 64.9 °F 62.1 °F 90% 29.43 in 10.0 mi South 10.4 mph 24.2 mph 0.02 in Rain , Thunderstorm Light Rain
3:17 PM 64.4 °F 62.6 °F 94% 29.42 in 2.5 mi SSW 6.9 mph - 0.08 in Rain , Thunderstorm Heavy Thunderstorms and Rain
3:19 PM 64.4 °F 62.6 °F 94% 29.41 in 1.8 mi Variable 6.9 mph - 0.12 in Rain , Thunderstorm Heavy Thunderstorms and Rain
3:25 PM 64.4 °F 62.6 °F 94% 29.46 in 0.8 mi WSW 15.0 mph - 0.30 in Rain , Thunderstorm Heavy Thunderstorms and Rain
3:33 PM 62.6 °F 62.6 °F 100% 29.42 in 0.2 mi SSW 16.1 mph 33.4 mph 0.81 in Fog , Rain , Thunderstorm Heavy Rain
3:38 PM 59.0 °F 57.2 °F 94% 29.48 in 0.2 mi WNW 26.5 mph 39.1 mph 0.94 in Fog , Rain , Thunderstorm Heavy Rain
3:43 PM 55.4 °F 55.4 °F 100% 29.50 in 0.5 mi WNW 23.0 mph 39.1 mph 1.02 in Fog , Rain , Thunderstorm Heavy Rain
3:53 PM 55.0 °F 54.0 °F 96% 29.51 in 1.0 mi WNW 10.4 mph 27.6 mph 1.14 in Rain , Thunderstorm Heavy Thunderstorms and Rain
4:04 PM 55.4 °F 53.6 °F 94% 29.55 in 0.8 mi West 6.9 mph - 0.16 in Rain , Thunderstorm Heavy Thunderstorms and Rain
4:10 PM 55.4 °F 53.6 °F 94% 29.53 in 1.0 mi WNW 9.2 mph - 0.21 in Rain , Thunderstorm Heavy Thunderstorms and Rain
4:21 PM 55.4 °F 53.6 °F 94% 29.52 in 3.0 mi NW 3.5 mph - 0.24 in Rain , Thunderstorm Thunderstorms and Rain
4:25 PM 53.6 °F 53.6 °F 100% 29.52 in 2.5 mi NW 5.8 mph - 0.26 in Rain Heavy Rain
4:40 PM 53.6 °F 53.6 °F 100% 29.51 in 4.0 mi Variable 3.5 mph - 0.28 in Rain Light Rain
4:53 PM 54.0 °F 54.0 °F 100% 29.50 in 4.0 mi North 4.6 mph - 0.30 in Rain Rain
4:58 PM 53.6 °F 53.6 °F 100% 29.51 in 2.5 mi NNW 4.6 mph - 0.02 in Rain , Thunderstorm Rain
5:14 PM 53.6 °F 53.6 °F 100% 29.53 in 5.0 mi Calm Calm - 0.06 in Rain Light Rain
5:23 PM 53.6 °F 53.6 °F 100% 29.56 in 3.0 mi North - - 0.10 in Rain , Thunderstorm Heavy Rain
5:32 PM 53.6 °F 53.6 °F 100% 29.54 in 2.5 mi North - - 0.16 in Rain Heavy Rain
5:40 PM 53.6 °F 53.6 °F 100% 29.54 in 4.0 mi North - - 0.18 in Rain Rain
5:53 PM 54.0 °F 54.0 °F 100% 29.53 in 5.0 mi North - - 0.20 in Rain Light Rain
6:39 PM 53.6 °F 53.6 °F 100% 29.57 in 2.5 mi North - - 0.09 in Rain Rain
6:41 PM 53.6 °F 53.6 °F 100% 29.56 in 3.0 mi North - - 0.09 in Rain Rain
6:53 PM 55.0 °F 50.0 °F 83% 29.54 in 7.0 mi North - - 0.12 in Rain Light Rain
7:53 PM 52.0 °F 52.0 °F 100% 29.49 in 6.0 mi North - - 0.12 in Rain Rain
8:53 PM 52.0 °F 52.0 °F 100% 29.50 in 5.0 mi North - - 0.13 in Rain Rain
9:04 PM 51.8 °F 51.8 °F 100% 29.52 in 4.0 mi North - - 0.03 in Rain Rain
9:24 PM 51.8 °F 51.8 °F 100% 29.57 in 2.0 mi North - - 0.13 in Rain Rain
9:35 PM 51.8 °F 51.8 °F 100% 29.57 in 1.8 mi North - - 0.23 in Rain Heavy Rain
9:42 PM 51.8 °F 51.8 °F 100% 29.58 in 3.0 mi North - - 0.26 in Rain Rain
9:53 PM 50.0 °F 48.9 °F 96% 29.56 in 9.0 mi North - - 0.28 in Rain Rain
9:57 PM 50.0 °F 48.2 °F 94% 29.58 in 9.0 mi North - - 0.01 in Rain Light Rain
10:53 PM 48.9 °F 48.0 °F 97% 29.51 in 10.0 mi North - - 0.02 in   Overcast
11:53 PM 48.0 °F 48.0 °F 100% 29.52 in 10.0 mi North - - N/A   Mostly Cloudy